Regional Weather Roundup
Issued by NWS

Home | Current Version | Previous Version | Graphics & Text | Print | Product List | Glossary On
Versions: 1 2 3 4 5 6 7 8 9 10 11 12 13 14 15 16 17 18 19 20 21 22 23 24 25 26 27 28 29 30 31 32 33 34 35 36 37 38 39 40 41 42 43 44 45 46 47 48 49 50
233
ASUS43 KLSX 261407
RWRMO
WEATHER SUMMARY FOR MISSOURI
NATIONAL WEATHER SERVICE SPRINGFIELD MO
900 AM CDT WED APR 26 2017

NOTE: "FAIR" INDICATES FEW OR NO CLOUDS BELOW 12,000 FEET WITH NO
       SIGNIFICANT WEATHER AND/OR OBSTRUCTIONS TO VISIBILITY.
       CURRENT SKY AND/OR WEATHER CONDITIONS ARE NOT AVAILABLE FOR
       CHILLICOTHE AND FARMINGTON.

MOZ001>031-035>038-043-044-053-054-261500-
...NORTHERN AND WESTERN MISSOURI...

CITY           SKY/WX    TMP DP  RH WIND       PRES   REMARKS
KANSAS CTY INT CLOUDY    41  38  89 NW13G22   29.62R
KANSAS C DTWN  CLOUDY    44  40  85 NW8G18    29.63R
LEE`S SUMMIT   CLOUDY    43  42  97 NW16      29.61R
ST JOSEPH      CLOUDY    41  39  93 NW20G28   29.63S
CHILLICOTHE      N/A     44  42  93 NW7G20    29.60R
KIRKSVILLE     CLOUDY    48  46  93 NW14      29.54R

$$
MOZ066>068-077>081-088>096-101>105-261500-
...SOUTHWEST MISSOURI...

CITY           SKY/WX    TMP DP  RH WIND       PRES   REMARKS
SPRINGFIELD    LGT RAIN  59  58  96 CALM      29.53R
JOPLIN         LGT RAIN  49  48  97 N13       29.58S FOG
BRANSON        TSTM      57  57 100 SE13G20   29.55S

$$
MOZ032>034-039>042-045>050-055>058-069>072-261500-
...CENTRAL MISSOURI...

CITY           SKY/WX    TMP DP  RH WIND       PRES   REMARKS
COLUMBIA       CLOUDY    55  55 100 NW10      29.52S FOG
JEFFERSON CITY CLOUDY    61  56  83 NW10      29.53R
ROLLA          LGT RAIN  58  57  97 W10       29.54R
SEDALIA        CLOUDY    49  48  97 NW10      29.57S
WHITEMAN AFB   CLOUDY    46  46 100 N10       29.57R FOG
OSAGE BEACH    LGT RAIN  58  57  97 CALM      29.53S

$$
MOZ051-052-059>065-261500-
...EAST CENTRAL MISSOURI...

CITY           SKY/WX    TMP DP  RH WIND       PRES   REMARKS
ST LOUIS INTL  PTSUNNY   68  56  65 SW9       29.52R
SPIRIT OF STL  PTSUNNY   66  58  75 SW8       29.51R
ST CHARLES     CLOUDY    68  58  70 S15       29.51R

$$
MOZ072>076-082>087-097>100-106>115-261500-
...SOUTH CENTRAL AND SOUTHEAST MISSOURI...

CITY           SKY/WX    TMP DP  RH WIND       PRES   REMARKS
CAPE GIRARDEAU SUNNY     70  60  70 S15G24    29.57S
FARMINGTON     SUNNY     70  58  65 S14G23    29.54R
POPLAR BLUFF   CLOUDY    69  62  78 S13       29.57S
WEST PLAINS    CLOUDY    64  57  78 SW3       29.57F

$$




USA.gov is the U.S. government's official web portal to all federal, state and local government web resources and services.